Location: Winthrop
(48.4780°N, 120.1850°W)
Time: 02:25:22
(UTC-07:00)

Transit 2A - Pass Details

Date: 18 June 2024
Orbit: 591 x 960 km, 66.7° (Epoch: 23 July)

Event Time Altitude Azimuth Distance (km) Brightness Sun altitude
Rises 02:35:20 0° 319° (NW) 3,522 9.8 -15.1°
Reaches altitude 10° 02:37:57 10° 312° (NW) 2,619 9.0 -15.0°
Maximum altitude 02:43:33 38° 247° (WSW) 1,419 7.0 -14.6°
Enters shadow 02:47:23 19° 192° (SSW) 2,085 7.6 -14.3°
